This is the latest recevied weather packets stored in our database for station/object R1CBW-13. If no packets are shown the sender has not sent any weather packets the latest 10 day(s).
| Time | Temp. | Humidity | Pressure | Rain* | Wind** | Luminosity | Snow |
|---|---|---|---|---|---|---|---|
| 1777295594 | 7.22° C | 31% | 1005.3 hPa | 0 mm | - | - | - |
| 1777295534 | 7.22° C | 33% | 1004.7 hPa | 0 mm | - | - | - |
| 1777295474 | 7.22° C | 32% | 1004.7 hPa | 0 mm | - | - | - |
| 1777295414 | 7.22° C | 33% | 1004.7 hPa | 0 mm | - | - | - |
| 1777295354 | 6.67° C | 32% | 1004.7 hPa | 0 mm | - | - | - |
| 1777295294 | 7.22° C | 33% | 1004.7 hPa | 0 mm | - | - | - |
| 1777295234 | 6.67° C | 32% | 1004.7 hPa | 0 mm | - | - | - |
| 1777295174 | 6.67° C | 32% | 1004.7 hPa | 0 mm | - | - | - |
| 1777295114 | 7.22° C | 32% | 1004.8 hPa | 0 mm | - | - | - |
| 1777295054 | 7.22° C | 32% | 1005 hPa | 0 mm | - | - | - |
| 1777294994 | 7.22° C | 32% | 1004.8 hPa | 0 mm | - | - | - |
| 1777294934 | 7.22° C | 33% | 1004.6 hPa | 0 mm | - | - | - |
| 1777294874 | 7.78° C | 33% | 1004.6 hPa | 0 mm | - | - | - |
| 1777294814 | 7.78° C | 33% | 1004.6 hPa | 0 mm | - | - | - |
| 1777294760 | 6.67° C | 33% | 1004.8 hPa | 0 mm | - | - | - |
| 1777294694 | 7.22° C | 34% | 1004.6 hPa | 0 mm | - | - | - |
| 1777294634 | 7.22° C | 34% | 1004.6 hPa | 0 mm | - | - | - |
| 1777294574 | 7.22° C | 34% | 1004.9 hPa | 0 mm | - | - | - |
| 1777294514 | 6.67° C | 34% | 1004.9 hPa | 0 mm | - | - | - |
| 1777294454 | 7.22° C | 34% | 1004.9 hPa | 0 mm | - | - | - |
| 1777294394 | 6.67° C | 34% | 1004.8 hPa | 0 mm | - | - | - |
| 1777294334 | 7.78° C | 34% | 1004.7 hPa | 0 mm | - | - | - |
| 1777294274 | 7.22° C | 34% | 1004.7 hPa | 0 mm | - | - | - |
| 1777294214 | 7.22° C | 35% | 1004.5 hPa | 0 mm | - | - | - |
| 1777294154 | 7.22° C | 35% | 1004.5 hPa | 0 mm | - | - | - |
* Rain latest hour (hover to see other rain measurements)
** Current wind speed in m/s (hover to see current wind gust speed)